• In Hungary
  • List of Countries
  • For 7 days
  • Water Temperature
  • Satellite Maps
  • Weather Map
  • News
  • Weather Widgets
  • user-avatar
    Login

    Hourly Weather Dagni

    Today, 21 July, Saturday

    Time Temperature Precipitation Wind Pressure Humidity
    00:00 +21°C° 0 mm 2 mps 686 mmHg 75%
    01:00 +21°C° 0 mm 2 mps 686 mmHg 75%
    02:00 +21°C° 0 mm 2 mps 686 mmHg 75%
    03:00 +20°C° 0 mm 2 mps 685 mmHg 71%
    04:00 +21°C° 0 mm 2 mps 686 mmHg 70%
    05:00 +23°C° 0 mm 2 mps 686 mmHg 69%
    06:00 +24°C° 0 mm 2 mps 686 mmHg 68%
    07:00 +25°C° 0 mm 3 mps 687 mmHg 64%
    08:00 +27°C° 0 mm 3 mps 687 mmHg 61%
    09:00 +28°C° 0 mm 4 mps 687 mmHg 59%
    10:00 +28°C° 0.1 mm 4 mps 687 mmHg 58%
    11:00 +28°C° 0.1 mm 4 mps 687 mmHg 57%
    12:00 +29°C° 0.1 mm 5 mps 688 mmHg 56%
    13:00 +28°C° 0.2 mm 4 mps 687 mmHg 57%
    14:00 +28°C° 0.2 mm 4 mps 687 mmHg 58%
    15:00 +28°C° 0.2 mm 4 mps 687 mmHg 59%
    16:00 +27°C° 0.1 mm 3 mps 687 mmHg 62%
    17:00 +26°C° 0.1 mm 2 mps 687 mmHg 65%
    18:00 +25°C° 0.1 mm 2 mps 687 mmHg 67%
    19:00 +24°C° 0 mm 2 mps 687 mmHg 72%
    20:00 +23°C° 0 mm 1 mps 687 mmHg 76%
    21:00 +21°C° 0 mm 1 mps 687 mmHg 80%
    22:00 +20°C° 0 mm 2 mps 687 mmHg 79%
    23:00 +21°C° 0 mm 2 mps 687 mmHg 77%

    Tomorrow, 22 July, Sunday

    Time Temperature Precipitation Wind Pressure Humidity
    00:00 +21°C° 0 mm 2 mps 687 mmHg 76%
    01:00 +20°C° 0 mm 2 mps 687 mmHg 76%
    02:00 +20°C° 0 mm 2 mps 687 mmHg 76%
    03:00 +20°C° 0 mm 2 mps 687 mmHg 76%
    04:00 +21°C° 0 mm 2 mps 688 mmHg 73%
    05:00 +23°C° 0 mm 2 mps 688 mmHg 71%
    06:00 +24°C° 0 mm 2 mps 688 mmHg 69%
    07:00 +25°C° 0 mm 2 mps 688 mmHg 64%
    08:00 +26°C° 0 mm 2 mps 688 mmHg 59%
    09:00 +27°C° 0 mm 2 mps 689 mmHg 55%
    10:00 +28°C° 0.1 mm 3 mps 688 mmHg 54%
    11:00 +28°C° 0.1 mm 3 mps 688 mmHg 53%
    12:00 +29°C° 0.1 mm 4 mps 688 mmHg 52%
    13:00 +29°C° 0.4 mm 3 mps 688 mmHg 53%
    14:00 +29°C° 0.4 mm 3 mps 687 mmHg 54%
    15:00 +29°C° 0.4 mm 3 mps 687 mmHg 55%
    16:00 +28°C° 0.4 mm 3 mps 687 mmHg 58%
    17:00 +27°C° 0.4 mm 2 mps 687 mmHg 61%
    18:00 +26°C° 0.4 mm 2 mps 687 mmHg 64%
    19:00 +25°C° 0.2 mm 2 mps 686 mmHg 69%
    20:00 +23°C° 0.2 mm 1 mps 686 mmHg 73%
    21:00 +22°C° 0.2 mm 1 mps 686 mmHg 77%
    22:00 +22°C° 0 mm 1 mps 686 mmHg 76%
    23:00 +22°C° 0 mm 1 mps 686 mmHg 75%

    Day after tomorrow, 23 July, Monday

    Time Temperature Precipitation Wind Pressure Humidity
    00:00 +20°C° 0 mm 2 mps 686 mmHg 74%
    01:00 +22°C° 0 mm 1 mps 686 mmHg 73%
    02:00 +22°C° 0 mm 1 mps 686 mmHg 72%
    03:00 +22°C° 0 mm 1 mps 686 mmHg 71%
    04:00 +22°C° 0 mm 1 mps 686 mmHg 70%
    05:00 +23°C° 0 mm 1 mps 686 mmHg 69%
    06:00 +22°C° 0 mm 0 mps 687 mmHg 68%
    07:00 +25°C° 0 mm 1 mps 687 mmHg 64%
    08:00 +26°C° 0 mm 2 mps 687 mmHg 59%
    09:00 +28°C° 0 mm 2 mps 687 mmHg 55%
    10:00 +28°C° 0.2 mm 3 mps 687 mmHg 53%
    11:00 +29°C° 0.2 mm 3 mps 687 mmHg 51%
    12:00 +30°C° 0.2 mm 4 mps 686 mmHg 49%
    13:00 +29°C° 0.2 mm 4 mps 686 mmHg 50%
    14:00 +29°C° 0.2 mm 3 mps 686 mmHg 51%
    15:00 +29°C° 0.2 mm 3 mps 685 mmHg 52%
    16:00 +28°C° 0.1 mm 3 mps 685 mmHg 55%
    17:00 +27°C° 0.1 mm 2 mps 685 mmHg 59%
    18:00 +26°C° 0.1 mm 2 mps 684 mmHg 62%
    19:00 +25°C° 0.1 mm 2 mps 685 mmHg 65%
    20:00 +24°C° 0.1 mm 2 mps 685 mmHg 68%
    21:00 +23°C° 0.1 mm 2 mps 685 mmHg 71%
    22:00 +23°C° 0 mm 2 mps 685 mmHg 69%
    23:00 +23°C° 0 mm 2 mps 685 mmHg 67%

    24 July, Tuesday

    Time Temperature Precipitation Wind Pressure Humidity
    00:00 +23°C° 0 mm 2 mps 685 mmHg 65%
    01:00 +23°C° 0.2 mm 2 mps 685 mmHg 67%
    02:00 +23°C° 0.2 mm 2 mps 685 mmHg 68%
    03:00 +21°C° 0.2 mm 2 mps 685 mmHg 70%
    04:00 +22°C° 0 mm 3 mps 685 mmHg 69%
    05:00 +22°C° 0 mm 3 mps 685 mmHg 67%
    06:00 +24°C° 0 mm 3 mps 685 mmHg 66%
    07:00 +26°C° 0 mm 3 mps 686 mmHg 61%
    08:00 +27°C° 0 mm 3 mps 686 mmHg 56%
    09:00 +29°C° 0 mm 4 mps 686 mmHg 51%
    10:00 +29°C° 0.1 mm 4 mps 686 mmHg 50%
    11:00 +30°C° 0.1 mm 4 mps 686 mmHg 50%
    12:00 +32°C° 0.1 mm 5 mps 686 mmHg 49%
    13:00 +32°C° 0.1 mm 4 mps 686 mmHg 50%
    14:00 +32°C° 0.1 mm 4 mps 686 mmHg 51%
    15:00 +32°C° 0.1 mm 4 mps 686 mmHg 52%
    16:00 +30°C° 0 mm 3 mps 686 mmHg 56%
    17:00 +29°C° 0 mm 3 mps 686 mmHg 60%
    18:00 +28°C° 0 mm 2 mps 686 mmHg 64%
    19:00 +27°C° 0 mm 2 mps 686 mmHg 67%
    20:00 +25°C° 0 mm 2 mps 687 mmHg 70%
    21:00 +24°C° 0 mm 2 mps 687 mmHg 73%
    22:00 +23°C° 0 mm 2 mps 687 mmHg 69%
    23:00 +23°C° 0 mm 2 mps 687 mmHg 65%

    25 July, Wednesday

    Time Temperature Precipitation Wind Pressure Humidity
    00:00 +23°C° 0 mm 2 mps 686 mmHg 60%
    01:00 +23°C° 0 mm 2 mps 686 mmHg 57%
    02:00 +23°C° 0 mm 2 mps 686 mmHg 53%
    03:00 +23°C° 0 mm 2 mps 686 mmHg 50%
    04:00 +24°C° 0 mm 2 mps 686 mmHg 49%
    05:00 +24°C° 0 mm 2 mps 687 mmHg 49%
    06:00 +25°C° 0 mm 2 mps 687 mmHg 49%
    07:00 +27°C° 0 mm 2 mps 687 mmHg 46%
    08:00 +30°C° 0 mm 2 mps 687 mmHg 43%
    09:00 +32°C° 0 mm 2 mps 688 mmHg 40%
    10:00 +34°C° 0 mm 2 mps 688 mmHg 39%
    11:00 +34°C° 0 mm 3 mps 688 mmHg 39%
    12:00 +35°C° 0 mm 4 mps 687 mmHg 39%
    13:00 +35°C° 0 mm 3 mps 687 mmHg 40%
    14:00 +35°C° 0 mm 3 mps 687 mmHg 42%
    15:00 +35°C° 0 mm 3 mps 687 mmHg 43%
    16:00 +34°C° 0 mm 3 mps 687 mmHg 47%
    17:00 +33°C° 0 mm 3 mps 687 mmHg 50%
    18:00 +31°C° 0 mm 2 mps 686 mmHg 54%
    19:00 +29°C° 0 mm 2 mps 687 mmHg 56%
    20:00 +28°C° 0 mm 2 mps 687 mmHg 58%
    21:00 +26°C° 0 mm 2 mps 687 mmHg 60%
    22:00 +26°C° 0 mm 2 mps 687 mmHg 57%
    23:00 +26°C° 0 mm 2 mps 687 mmHg 54%

    26 July, Thursday

    Time Temperature Precipitation Wind Pressure Humidity
    00:00 +25°C° 0 mm 2 mps 687 mmHg 52%
    01:00 +25°C° 0 mm 2 mps 686 mmHg 50%
    02:00 +25°C° 0 mm 2 mps 686 mmHg 48%
    03:00 +25°C° 0 mm 2 mps 686 mmHg 46%
    04:00 +26°C° 0 mm 2 mps 687 mmHg 47%
    05:00 +26°C° 0 mm 2 mps 687 mmHg 47%
    06:00 +27°C° 0 mm 2 mps 687 mmHg 48%
    07:00 +29°C° 0 mm 2 mps 688 mmHg 45%
    08:00 +31°C° 0 mm 3 mps 688 mmHg 42%
    09:00 +34°C° 0 mm 3 mps 688 mmHg 39%
    10:00 +35°C° 0 mm 4 mps 688 mmHg 38%
    11:00 +36°C° 0 mm 5 mps 688 mmHg 38%
    12:00 +37°C° 0 mm 5 mps 688 mmHg 38%
    13:00 +36°C° 0 mm 5 mps 688 mmHg 38%
    14:00 +36°C° 0 mm 5 mps 688 mmHg 39%
    15:00 +36°C° 0 mm 5 mps 688 mmHg 39%
    16:00 +35°C° 0.1 mm 5 mps 688 mmHg 42%
    17:00 +33°C° 0.1 mm 4 mps 688 mmHg 44%
    18:00 +32°C° 0.1 mm 4 mps 688 mmHg 47%
    19:00 +29°C° 0 mm 3 mps 688 mmHg 50%
    20:00 +27°C° 0 mm 2 mps 688 mmHg 53%
    21:00 +25°C° 0 mm 1 mps 688 mmHg 56%
    22:00 +25°C° 0 mm 1 mps 688 mmHg 56%
    23:00 +25°C° 0 mm 1 mps 688 mmHg 55%
    Show more